Location: Bakhuizen
(52.8696°N, 5.4575°E)
Time: 20:19:34
(UTC+00:00)

Cosmos 2112 Rocket - Pass Details

Date: 11 May 2021
Orbit: 755 x 787 km, 74.1° (Epoch: 21 June)

Event Time Altitude Azimuth Distance (km) Brightness Sun altitude
Rises 21:37:08 0° 334° (NNW) 3,286 9.2 -14.6°
Reaches altitude 10° 21:39:32 10° 334° (NNW) 2,357 8.0 -14.8°
Maximum altitude 21:44:55 89° 63° (ENE) 796 4.0 -15.2°
Enters shadow 21:48:12 24° 155° (SSE) 1,573 5.0 -15.4°
